[[{"header":{"parameterUnit":"m.s-1","parameterCategory":1,"la1":30.2991,"la2":30.254,"lo1":-89.0895,"lo2":-89.0444,"dy":0.0017,"dx":0.0017,"nx":28,"ny":28,"refTime":"2025-01-30T09:00:00:Z","depth":0,"parameterNumber":2,"parameterNumberName":"U-component_of_WINDS"},"data":[0,0,0,0,0,0,0,0,0,0,0,0,0,0,0,0,0,0,0,0,0,0,0,0,0,0,0,0,0,0,0,0,0,0,0,0,0,0,0,0,0,0,0,0,0,0,0,0,0,0,0,0,0,0,0,0,0,0,-3.9977,-3.9978,0,-4.0083,-4.0084,-4.0085,-4.0094,-4.0093,-4.0092,-4.0091,-4.0199,-4.0202,-4.0206,0,0,0,0,0,0,0,0,0,0,0,0,0,-3.9783,-3.9786,-3.9977,-3.9978,-3.9979,-4.0082,-4.0084,-4.0085,-4.0094,-4.0093,-4.0092,-4.009,-4.0197,-4.0202,-4.0207,0,0,0,0,0,0,0,0,0,0,0,0,0,-3.9876,-3.9787,-3.9976,-3.9996,-3.9999,-4.0082,-4.0084,-4.0086,-4.0095,-4.0093,-4.0091,-4.009,-4.0196,-4.0201,-4.0207,-4.0277,0,0,-4.0225,-4.0228,0,0,0,0,0,0,0,0,-3.987,-3.9883,-3.9992,-3.9995,-3.9998,-4.0073,-4.0055,-4.015,-4.0095,-4.0058,-4.0091,-4.0089,-4.0158,-4.0167,-4.0191,-4.0283,-4.0287,-4.0226,-4.0229,-4.0232,-4.0234,0,0,0,0,0,0,0,-3.9864,-3.9878,-4.0019,-3.9994,-3.9998,-4.0,-4.0011,-4.0073,-4.0116,-4.0061,-4.0062,-4.0075,-4.016,-4.0185,-4.0193,-4.0289,-4.0226,-4.0231,-4.0234,-4.0237,-4.0444,-4.0446,0,0,0,0,0,0,-3.9854,-3.9873,-4.0015,-4.0022,-3.9929,-4.0005,-4.0018,-4.0051,-4.0116,-4.0124,-4.0076,-4.0075,-4.0176,-4.0186,-4.0197,-4.0283,-4.0232,-4.0237,-4.0241,-4.0442,-4.0445,-4.0447,0,0,0,0,0,0,-3.985,-3.9866,-4.0011,-3.9948,-3.9966,-4.001,-4.0048,-4.0054,-4.0079,-4.0127,-4.0135,-4.0094,-4.0175,-4.0189,-4.0258,-4.0287,-4.024,-4.0245,-4.044,-4.0443,-4.0446,-4.0456,0,0,0,0,0,0,-3.9844,-3.9865,-3.9892,-3.9948,-3.997,-4.0069,-4.0049,-4.0057,-4.0089,-4.0089,-4.0146,-4.0154,-4.0175,-4.0249,-4.0263,-4.0294,-4.025,-4.0437,-4.0441,-4.0445,-4.0454,-4.0459,-4.0464,0,0,0,0,0,-3.9837,-3.989,-3.9893,-3.991,-4.0004,-4.0071,-4.0083,-4.0107,-4.0092,-4.0119,-4.015,-4.0152,-4.0282,-4.0256,-4.0272,-4.0306,-4.0436,-4.044,-4.0444,-4.0451,-4.0458,-4.0464,0,0,0,0,0,0,-3.9836,-3.9898,-3.9902,-3.9975,-4.0018,-4.0073,-4.0108,-4.0113,-4.0161,-4.0158,-4.0185,-4.0198,-4.0266,-4.0293,-4.0262,-4.0377,-4.0357,-4.0365,-4.0357,-4.0364,-4.0369,-4.036,-4.0255,0,0,0,0,0,-3.9844,-3.9893,-3.9945,-4.0005,-4.0026,-4.0063,-4.0093,-4.0108,-4.0153,-4.0171,-4.0207,-4.0251,-4.0302,-4.0335,-4.0384,-4.0458,-4.0471,-4.049,-4.0495,-4.0499,-4.0505,-4.0546,-4.0555,-4.0461,-4.0461,-4.0461,0,0,-3.9861,-3.9902,-3.9931,-4.0006,-4.004,-4.0091,-4.0078,-4.0132,-4.017,-4.0179,-4.0246,-4.0274,-4.0325,-4.0397,-4.043,-4.0422,-4.0534,-4.0505,-4.0508,-4.0512,-4.0552,-4.0561,-4.0569,-4.0464,-4.0464,-4.0463,0,0,-3.9919,-3.9954,-4.0008,-4.0043,-4.0097,-4.0121,-4.0134,-4.0189,-4.0208,-4.0276,-4.0284,-4.0329,-4.0417,-4.0452,-4.0482,-4.0555,-4.0558,-4.057,-4.0598,-4.0638,-4.0645,-4.0652,-4.0677,-4.0686,-4.0577,-4.0577,-4.0577,0,-3.9933,-4.0009,-4.0034,-4.0088,-4.0121,-4.0133,-4.0187,-4.022,-4.0287,-4.0309,-4.0299,-4.0409,-4.0444,-4.0524,-4.0542,-4.0566,-4.0582,-4.0563,-4.0642,-4.0649,-4.0656,-4.068,-4.0689,-4.0578,-4.0578,-4.0577,-4.0577,0,-4.0025,-4.0078,-4.0115,-4.0179,-4.0216,-4.027,-4.0303,-4.0337,-4.0349,-4.0375,-4.0444,-4.0487,-4.0546,-4.0566,-4.0578,-4.0649,-4.0642,-4.0637,-4.0616,-4.0665,-4.0688,-4.0698,-4.0579,-4.0579,-4.0579,-4.0578,0,0,-4.0082,-4.0161,-4.0174,-4.0203,-4.0263,-4.0305,-4.036,-4.0417,-4.0446,-4.0492,-4.0538,-4.0613,-4.0609,-4.0642,-4.0659,-4.0694,-4.0748,-4.0685,-4.0686,-4.0694,-4.0828,-4.0831,-4.0841,-4.0752,-4.0754,-4.0755,-4.0824,0,-4.0145,-4.0242,-4.0267,-4.035,-4.0399,-4.0412,-4.046,-4.0503,-4.0529,-4.0574,-4.0603,-4.0655,-4.0646,-4.0667,-4.0702,-4.0734,-4.0775,-4.073,-4.0794,-4.0796,-4.078,-4.0853,-4.0856,-4.0918,-4.0833,-4.0835,-4.0836,0,-4.0231,-4.0279,-4.0367,-4.0422,-4.0443,-4.0486,-4.0541,-4.0584,-4.0633,-4.065,-4.0688,-4.0701,-4.0759,-4.0738,-4.0818,-4.0786,-4.0815,-4.0835,-4.0838,-4.0843,-4.0818,-4.086,-4.0939,-4.0948,-4.0851,-4.0849,-4.0848,0,-4.0263,-4.035,-4.0414,-4.0439,-4.0504,-4.0534,-4.0562,-4.061,-4.0643,-4.0691,-4.0713,-4.0768,-4.0797,-4.0839,-4.0867,-4.0849,-4.0945,-4.0926,-4.096,-4.0959,-4.0978,-4.0976,-4.1061,-4.0999,-4.0998,-4.0998,-4.0998,0,-4.033,-4.0383,-4.0429,-4.0468,-4.0528,-4.0557,-4.0616,-4.0645,-4.0687,-4.0732,-4.0747,-4.0789,-4.0824,-4.0871,-4.0894,-4.0956,-4.097,-4.0985,-4.099,-4.0982,-4.098,-4.1,-4.0996,-4.1001,-4.1,-4.1,-4.0999,0,-4.0375,-4.0408,-4.0478,-4.0535,-4.055,-4.0592,-4.0641,-4.0679,-4.0707,-4.0764,-4.0779,-4.0821,-4.0878,-4.091,-4.0981,-4.0996,-4.1065,-4.1069,-4.1049,-4.1051,-4.1083,-4.1079,-4.1182,-4.1197,-4.1126,-4.1126,-4.1127,0,-4.0414,-4.0456,-4.0517,-4.0548,-4.0577,-4.0628,-4.0662,-4.0693,-4.0727,-4.0787,-4.0818,-4.0875,-4.0923,-4.1012,-4.1049,-4.1104,-4.1108,-4.1141,-4.1116,-4.1108,-4.1108,-4.1104,-4.1108,-4.1145,-4.1145,-4.1146,-4.1146,0,-4.0481,-4.0496,-4.0544,-4.0599,-4.064,-4.0684,-4.0729,-4.0754,-4.0791,-4.083,-4.0888,-4.0925,-4.0997,-4.1054,-4.1112,-4.1142,-4.115,-4.1154,-4.1165,-4.1157,-4.1143,-4.115,-4.1059,-4.1151,-4.115,-4.115,-4.115,-4.115,-4.0524,-4.0561,-4.061,-4.0664,-4.0701,-4.0742,-4.0781,-4.0814,-4.0863,-4.0924,-4.094,-4.1,-4.1049,-4.1127,-4.1159,-4.1207,-4.1201,-4.1217,-4.122,-4.1223,-4.1224,-4.1137,-4.1218,-4.1218,-4.1218,-4.1218,-4.1217,0,-4.0591,-4.0623,-4.0673,-4.0734,-4.0777,-4.0782,-4.0832,-4.0867,-4.092,-4.0965,-4.1011,-4.1078,-4.1133,-4.1176,-4.1233,-4.1263,-4.1268,-4.1277,-4.1274,-4.1281,-4.1226,-4.1211,-4.1271,-4.1271,-4.1271,-4.1271,-4.1271,-4.1271,-4.063,-4.0694,-4.0714,-4.0796,-4.0828,-4.0888,-4.0916,-4.0954,-4.099,-4.1063,-4.1109,-4.1137,-4.1181,-4.1241,-4.1292,-4.1304,-4.1323,-4.1331,-4.1342,-4.129,-4.1284,-4.1279,-4.1264,-4.1335,-4.1335,-4.1393,-4.1393,-4.1394]},{"header":{"parameterUnit":"m.s-1","parameterCategory":1,"la1":30.2991,"la2":30.254,"lo1":-89.0895,"lo2":-89.0444,"dy":0.0017,"dx":0.0017,"nx":28,"ny":28,"refTime":"2025-01-30T09:00:00:Z","depth":0,"parameterNumber":3,"parameterNumberName":"V-component_of_WINDS"},"data":[0,0,0,0,0,0,0,0,0,0,0,0,0,0,0,0,0,0,0,0,0,0,0,0,0,0,0,0,0,0,0,0,0,0,0,0,0,0,0,0,0,0,0,0,0,0,0,0,0,0,0,0,0,0,0,0,0,0,3.7118,3.7119,0,3.7206,3.7207,3.7208,3.7243,3.7242,3.7242,3.7242,3.7333,3.7335,3.7338,0,0,0,0,0,0,0,0,0,0,0,0,0,3.6981,3.6983,3.7118,3.7119,3.712,3.7206,3.7208,3.7209,3.7243,3.7242,3.7242,3.7242,3.7332,3.7335,3.7338,0,0,0,0,0,0,0,0,0,0,0,0,0,3.7052,3.6984,3.7118,3.7147,3.7151,3.7206,3.7208,3.7209,3.7243,3.7242,3.7242,3.7242,3.7331,3.7335,3.7339,3.7371,0,0,3.7351,3.7352,0,0,0,0,0,0,0,0,3.7048,3.7057,3.7142,3.7146,3.715,3.7213,3.7193,3.7263,3.7243,3.7208,3.7242,3.7242,3.7293,3.73,3.7318,3.7375,3.7379,3.7351,3.7354,3.7355,3.7356,0,0,0,0,0,0,0,3.7043,3.7053,3.7153,3.7143,3.7148,3.7157,3.7167,3.7206,3.7252,3.7211,3.7214,3.7224,3.7295,3.7314,3.732,3.738,3.7351,3.7355,3.7357,3.7359,3.7472,3.7472,0,0,0,0,0,0,3.7033,3.7049,3.715,3.7156,3.7097,3.716,3.7171,3.7193,3.7251,3.726,3.7224,3.7225,3.7307,3.7315,3.7323,3.7368,3.7355,3.7359,3.7361,3.7471,3.7472,3.7473,0,0,0,0,0,0,3.703,3.7042,3.7147,3.7103,3.7117,3.7163,3.7188,3.7195,3.7214,3.7261,3.7269,3.7234,3.7307,3.7318,3.736,3.7371,3.7361,3.7364,3.747,3.7471,3.7472,3.7454,0,0,0,0,0,0,3.7026,3.704,3.7052,3.7103,3.7119,3.718,3.7188,3.7197,3.722,3.7223,3.7273,3.7281,3.7308,3.7353,3.7363,3.7376,3.7367,3.747,3.7471,3.7472,3.7454,3.7454,3.7454,0,0,0,0,0,3.7021,3.7042,3.7052,3.7064,3.7135,3.7181,3.719,3.722,3.7221,3.7234,3.7265,3.728,3.7368,3.7357,3.7369,3.7383,3.7469,3.7471,3.7472,3.7453,3.7454,3.7454,0,0,0,0,0,0,3.6991,3.705,3.7061,3.71,3.7135,3.7186,3.7204,3.7219,3.7255,3.7256,3.7292,3.7303,3.7342,3.7367,3.7354,3.7419,3.742,3.7423,3.7402,3.7403,3.7403,3.7397,3.7371,0,0,0,0,0,3.6989,3.702,3.707,3.71,3.7117,3.7157,3.7178,3.7199,3.7237,3.7252,3.7286,3.7322,3.7359,3.7382,3.7417,3.7457,3.747,3.7473,3.7473,3.7473,3.7477,3.7503,3.7505,3.7477,3.7477,3.7477,0,0,3.6985,3.7021,3.7038,3.7095,3.7125,3.7158,3.7169,3.7203,3.7229,3.7257,3.7299,3.7325,3.7369,3.741,3.743,3.7432,3.7487,3.7475,3.7475,3.7478,3.7505,3.7507,3.751,3.7478,3.7478,3.7478,0,0,3.6995,3.7024,3.7054,3.7084,3.7129,3.7156,3.7163,3.7213,3.7232,3.7275,3.7298,3.7329,3.739,3.7421,3.7445,3.747,3.7486,3.7481,3.7483,3.7508,3.751,3.7513,3.7524,3.7528,3.7484,3.7483,3.7483,0,3.6984,3.7035,3.7067,3.7101,3.7126,3.7154,3.7185,3.7213,3.7267,3.7285,3.7286,3.7365,3.7396,3.7447,3.7454,3.7471,3.7482,3.7475,3.7507,3.751,3.7512,3.7524,3.7528,3.7483,3.7483,3.7483,3.7483,0,3.7021,3.7056,3.7074,3.7128,3.7155,3.7187,3.7226,3.725,3.7268,3.7296,3.7341,3.738,3.7425,3.7439,3.7456,3.7493,3.7493,3.75,3.7502,3.7514,3.7526,3.753,3.7482,3.7482,3.7482,3.7482,0,0,3.7013,3.7086,3.7092,3.7119,3.7172,3.72,3.7235,3.728,3.7302,3.7339,3.737,3.7423,3.7431,3.7458,3.748,3.7502,3.7523,3.7507,3.7508,3.7511,3.757,3.7565,3.757,3.7534,3.7534,3.7535,3.7567,0,3.7032,3.7095,3.7126,3.7177,3.7211,3.7239,3.727,3.7307,3.7334,3.7369,3.7399,3.7437,3.7443,3.746,3.7483,3.7516,3.7536,3.7514,3.7565,3.7567,3.7555,3.7576,3.7571,3.7598,3.7571,3.7572,3.7573,0,3.7062,3.7101,3.7154,3.7207,3.7223,3.725,3.7296,3.7327,3.7371,3.739,3.7421,3.7444,3.7483,3.7482,3.7538,3.7522,3.7545,3.7565,3.7567,3.7574,3.7571,3.7586,3.7608,3.7613,3.758,3.7579,3.7579,0,3.7054,3.7119,3.7161,3.7182,3.7244,3.7263,3.729,3.7333,3.7359,3.74,3.7418,3.7462,3.7486,3.7521,3.7555,3.755,3.7609,3.7609,3.7627,3.7627,3.7639,3.7638,3.7668,3.7651,3.7651,3.7651,3.7651,0,3.7072,3.7105,3.7159,3.7184,3.7223,3.7259,3.7296,3.7325,3.7364,3.7398,3.7424,3.7455,3.7497,3.7534,3.7561,3.7606,3.7616,3.7633,3.764,3.7632,3.763,3.7649,3.7648,3.7652,3.7652,3.7651,3.7651,0,3.7069,3.7107,3.7155,3.721,3.7225,3.7251,3.73,3.7327,3.7356,3.7398,3.741,3.7457,3.7502,3.7539,3.7597,3.7616,3.7663,3.767,3.7649,3.7653,3.767,3.7669,3.7714,3.7723,3.7697,3.7697,3.7698,0,3.7079,3.7105,3.7165,3.7189,3.7216,3.7255,3.7283,3.7321,3.7349,3.7403,3.7424,3.7471,3.7511,3.7581,3.7621,3.7667,3.7677,3.7689,3.7684,3.7676,3.768,3.7679,3.7683,3.769,3.769,3.769,3.769,0,3.7094,3.7112,3.7151,3.7198,3.7231,3.7269,3.7308,3.7327,3.7373,3.7403,3.745,3.7481,3.7543,3.759,3.7641,3.7669,3.7689,3.7692,3.7699,3.7691,3.7679,3.7689,3.7652,3.7691,3.7691,3.7691,3.7691,3.7691,3.7099,3.7125,3.7172,3.7216,3.725,3.7287,3.7316,3.7351,3.7391,3.7444,3.7464,3.7513,3.7559,3.763,3.7659,3.7699,3.7701,3.771,3.7713,3.7716,3.7716,3.7671,3.7708,3.7708,3.7708,3.7708,3.7708,0,3.7117,3.715,3.719,3.7245,3.728,3.7296,3.7341,3.737,3.7412,3.7454,3.7494,3.755,3.7597,3.7641,3.7691,3.7714,3.7725,3.7726,3.7726,3.7733,3.7709,3.77,3.7717,3.7717,3.7717,3.7717,3.7717,3.7717,3.7131,3.7177,3.7201,3.7265,3.7297,3.7346,3.7371,3.7406,3.744,3.7502,3.7542,3.757,3.7615,3.7668,3.7713,3.7725,3.7743,3.7743,3.7758,3.7735,3.7734,3.7733,3.7724,3.7746,3.7746,3.7778,3.7778,3.7779]}]]